Date String (YYYY-MM-DD hh:mm:ss) UTC,Instrument flags,Ambient pressure (hPa),Sample flow (lpm),Bypass flow (lpm),Sample temperature (°C),Ambient temperature (°C),ASC tube jacket temperature (°C),LED temperature (°C),Box temperature (°C),Sample RH (%),Span deviation,Mass concentration (μg/m³),Mass concentration (μg/m³),Mass concentration (μg/m³)
DateTimeUTC,F1_M11,P_M11,Q1_M11,Q2_M11,T1_M11,T2_M11,T3_M11,T4_M11,T5_M11,U1_M11,ZSPAN_M11,X2_M11,X0_M11,X1_M11
2021-09-11 17:00:00,,0830.2,5.00,0.00,29.2,27.9,00.0,38.2,31.0,18.5,0002.2,0011.83,0025.66,0010.44
2021-09-11 17:01:00,,0830.1,5.00,0.00,29.1,26.2,00.0,38.1,30.5,18.3,0002.3,0011.86,0025.89,0010.47
2021-09-11 17:02:00,,0830.1,5.01,0.00,29.0,25.8,00.0,38.1,30.4,18.4,0002.4,0011.83,0024.46,0010.48
2021-09-11 17:03:00,,0830.1,5.00,0.00,29.0,26.2,00.0,38.1,30.6,18.8,0002.6,0011.86,0024.96,0010.48
2021-09-11 17:04:00,,0830.1,4.99,0.00,29.0,26.6,00.0,38.1,30.6,18.5,0002.4,0011.90,0025.45,0010.50
2021-09-11 17:05:00,,0830.1,5.01,0.00,29.0,27.0,00.0,38.1,30.7,17.8,0002.3,0011.91,0025.11,0010.49
2021-09-11 17:06:00,,0830.1,5.00,0.00,29.0,27.4,00.0,38.1,30.8,18.1,0002.4,0011.86,0024.42,0010.47
2021-09-11 17:07:00,,0830.2,5.00,0.00,29.1,27.8,00.0,38.1,30.9,18.0,0002.5,0011.88,0024.67,0010.46
2021-09-11 17:08:00,,0830.2,4.99,0.00,29.1,28.1,00.0,38.1,31.0,18.0,0002.3,0011.85,0024.25,0010.43
2021-09-11 17:09:00,,0830.2,5.00,0.00,29.2,28.3,00.0,38.1,31.1,19.0,0002.1,0011.85,0024.92,0010.42
2021-09-11 17:10:00,,0830.1,5.00,0.00,29.2,27.3,00.0,38.1,30.9,18.8,0002.0,0011.89,0024.99,0010.45
2021-09-11 17:11:00,,0830.1,4.99,0.00,29.1,26.0,00.0,38.1,30.5,19.1,0001.9,0011.93,0025.57,0010.48
2021-09-11 17:12:00,,0830.1,5.00,0.00,29.0,26.1,00.0,38.1,30.5,19.9,0001.7,0011.94,0025.94,0010.48
2021-09-11 17:13:00,,0830.1,5.01,0.00,29.0,26.5,00.0,38.1,30.6,19.3,0001.7,0012.00,0026.02,0010.50
2021-09-11 17:14:00,,0830.1,4.99,0.00,29.0,27.0,00.0,38.1,30.7,19.0,0001.6,0012.00,0025.06,0010.53
2021-09-11 17:15:00,,0830.1,5.01,0.00,29.0,27.4,00.0,38.1,30.8,19.5,0001.7,0012.00,0024.66,0010.55
2021-09-11 17:16:00,,0830.1,4.99,0.00,29.1,27.7,00.0,38.1,30.9,19.8,0001.5,0011.96,0025.09,0010.55
2021-09-11 17:17:00,,0830.1,4.99,0.00,29.1,28.0,00.0,38.1,31.0,19.7,0001.6,0012.02,0025.68,0010.58
2021-09-11 17:18:00,,0830.1,5.00,0.00,29.2,28.2,00.0,38.1,31.1,20.1,0001.5,0012.00,0025.34,0010.60
2021-09-11 17:19:00,,0830.1,5.01,0.00,29.2,27.4,00.0,38.1,30.9,20.1,0001.8,0012.00,0024.80,0010.62
2021-09-11 17:20:00,,0830.1,4.99,0.00,29.1,25.9,00.0,38.1,30.4,20.0,0001.8,0012.00,0023.32,0010.63
2021-09-11 17:21:00,,0830.1,5.00,0.00,29.0,26.0,00.0,38.1,30.4,20.7,0001.7,0012.00,0023.29,0010.60
2021-09-11 17:22:00,,0830.1,5.01,0.00,29.0,26.5,00.0,38.1,30.6,21.3,0001.7,0012.00,0023.37,0010.61
2021-09-11 17:23:00,,0830.1,4.99,0.00,29.0,26.9,00.0,38.1,30.7,20.7,0002.0,0011.97,0023.84,0010.58
2021-09-11 17:24:00,,0830.1,5.01,0.00,29.0,27.3,00.0,38.1,30.8,20.8,0002.0,0011.95,0024.40,0010.58
2021-09-11 17:25:00,,0830.0,5.00,0.00,29.1,27.6,00.0,38.1,30.9,20.6,0002.2,0011.93,0024.37,0010.56
2021-09-11 17:26:00,,0830.0,4.98,0.00,29.1,27.9,00.0,38.1,31.0,20.5,0002.4,0011.86,0023.83,0010.54
2021-09-11 17:27:00,,0830.0,5.01,0.00,29.1,27.1,00.0,38.1,30.8,19.8,0002.2,0011.91,0023.58,0010.55
2021-09-11 17:28:00,,0830.0,4.99,0.00,29.0,25.8,00.0,38.1,30.4,19.9,0001.9,0011.86,0023.29,0010.52
2021-09-11 17:29:00,,0830.0,4.99,0.00,28.9,26.0,00.0,38.1,30.4,20.3,0001.8,0011.81,0023.58,0010.49
2021-09-11 17:30:00,,0830.0,5.01,0.00,28.9,26.4,00.0,38.0,30.6,20.6,0001.4,0011.76,0023.63,0010.46
2021-09-11 17:31:00,,0830.0,5.01,0.00,28.9,26.9,00.0,38.0,30.6,20.7,0001.7,0011.71,0023.18,0010.43
2021-09-11 17:32:00,,0829.9,5.00,0.00,29.0,27.3,00.0,38.0,30.8,20.8,0002.0,0011.66,0023.71,0010.42
2021-09-11 17:33:00,,0829.9,5.00,0.00,29.0,27.7,00.0,38.0,30.9,20.8,0001.9,0011.66,0024.67,0010.40
2021-09-11 17:34:00,,0829.9,4.99,0.00,29.1,27.9,00.0,38.0,31.0,20.7,0001.7,0011.70,0024.89,0010.40
2021-09-11 17:35:00,,0829.9,5.01,0.00,29.1,28.2,00.0,38.1,31.1,20.8,0001.8,0011.73,0024.51,0010.39
2021-09-11 17:36:00,,0829.8,5.00,0.00,29.2,27.5,00.0,38.1,30.9,20.8,0001.7,0011.74,0025.76,0010.38
2021-09-11 17:37:00,,0829.8,5.01,0.00,29.0,26.0,00.0,38.1,30.4,20.5,0001.7,0011.72,0025.69,0010.36
2021-09-11 17:38:00,,0829.8,4.99,0.00,28.9,26.1,00.0,38.1,30.4,20.8,0001.9,0011.69,0025.46,0010.33
2021-09-11 17:39:00,,0829.8,5.00,0.00,28.9,26.5,00.0,38.0,30.6,19.7,0002.0,0011.70,0025.58,0010.31
2021-09-11 17:40:00,,0829.8,5.00,0.00,29.0,26.9,00.0,38.0,30.7,19.0,0002.2,0011.63,0025.53,0010.27
2021-09-11 17:41:00,,0829.8,5.01,0.00,29.0,27.3,00.0,38.0,30.8,19.1,0002.5,0011.57,0025.34,0010.22
2021-09-11 17:42:00,,0829.7,5.00,0.00,29.0,27.7,00.0,38.0,30.9,18.9,0002.6,0011.50,0024.80,0010.18
2021-09-11 17:43:00,,0829.7,4.99,0.00,29.1,27.7,00.0,38.0,30.9,18.3,0002.5,0011.46,0024.19,0010.10
2021-09-11 17:44:00,,0829.7,5.00,0.00,29.0,26.4,00.0,38.0,30.6,18.4,0002.6,0011.34,0023.04,0010.01
2021-09-11 17:45:00,,0829.6,5.00,0.00,28.9,25.8,00.0,38.0,30.4,18.7,0002.7,0011.20,0022.05,0009.92
2021-09-11 17:46:00,,0829.7,5.00,0.00,28.9,26.2,00.0,38.0,30.5,18.3,0002.5,0011.04,0022.45,0009.81
2021-09-11 17:47:00,,0829.7,5.00,0.00,28.9,26.6,00.0,38.0,30.6,18.4,0002.2,0010.93,0021.59,0009.71
2021-09-11 17:48:00,,0829.6,5.00,0.00,28.9,27.1,00.0,38.0,30.7,18.4,0002.0,0010.85,0021.39,0009.62
2021-09-11 17:49:00,,0829.6,4.99,0.00,29.0,27.4,00.0,38.0,30.8,18.0,0001.9,0010.80,0021.92,0009.54
2021-09-11 17:50:00,,0829.7,5.00,0.00,29.0,27.7,00.0,38.0,30.9,16.8,0001.9,0010.65,0021.36,0009.41
2021-09-11 17:51:00,,0829.6,5.01,0.00,29.1,27.7,00.0,38.0,30.9,17.3,0001.6,0010.57,0020.68,0009.33
2021-09-11 17:52:00,,0829.6,4.99,0.00,29.0,26.4,00.0,38.0,30.5,17.0,0001.3,0010.50,0019.83,0009.26
2021-09-11 17:53:00,,0829.6,5.01,0.00,28.9,25.8,00.0,38.0,30.3,17.3,0001.2,0010.40,0019.84,0009.17
2021-09-11 17:54:00,,0829.6,4.99,0.00,28.9,26.3,00.0,38.0,30.5,19.0,0001.1,0010.36,0020.21,0009.14
2021-09-11 17:55:00,,0829.6,5.01,0.00,28.9,26.7,00.0,38.0,30.6,17.8,0001.0,0010.29,0020.19,0009.11
2021-09-11 17:56:00,,0829.5,4.99,0.00,28.9,27.1,00.0,37.9,30.7,18.0,0000.9,0010.20,0019.35,0009.05
2021-09-11 17:57:00,,0829.5,4.99,0.00,29.0,27.5,00.0,38.0,30.8,18.2,0001.1,0010.17,0018.41,0009.02
2021-09-11 17:58:00,,0829.5,5.01,0.00,29.0,27.8,00.0,38.0,30.9,17.0,0001.4,0010.10,0018.24,0008.98
2021-09-11 17:59:00,,0829.5,4.99,0.00,29.1,27.8,00.0,38.0,30.9,16.7,0001.7,0010.01,0017.95,0008.91
